AFL1326 UUEE-ULMM

Flight info

Callsign AFL1326
Flight time 2h 7m
Altitude 36000
Route RILPO3E RILPO DCT GIMDA N156 UPEMA T825 ADLIN/K0835F360 T747 MOVIT DCT PILAN T693 ASGOR ASGO2M
Aircraft A320/M-SDE3FGHIRWY/LB1

Departure

Time 2026-05-09 19:18
Airport Sheremetyevo International Airport (UUEE)

Arrival

Time 2026-05-09 21:25
Airport Emperor Nicholas II Murmansk Airport (ULMM)
Time Latitude Longitude Altitude Speed Heading
2026-05-09 18:58 55.97961 37.41616 639 ft 0 kts 76°
2026-05-09 19:04 55.97957 37.41593 641 ft 2 kts 76°
2026-05-09 19:04 55.97953 37.41565 639 ft 2 kts 76°
2026-05-09 19:04 55.97949 37.41537 640 ft 2 kts 76°
2026-05-09 19:05 55.97945 37.41509 644 ft 2 kts 102°
2026-05-09 19:05 55.97953 37.41484 641 ft 2 kts 160°
2026-05-09 19:05 55.97955 37.41482 641 ft 0 kts 164°
2026-05-09 19:07 55.97931 37.41494 642 ft 4 kts 164°
2026-05-09 19:08 55.97911 37.41504 641 ft 2 kts 164°
2026-05-09 19:08 55.97898 37.41510 639 ft 1 kts 164°
2026-05-09 19:08 55.97891 37.41514 641 ft 0 kts 164°
2026-05-09 19:09 55.97890 37.41514 641 ft 1 kts 164°
2026-05-09 19:09 55.97842 37.41537 645 ft 11 kts 165°
2026-05-09 19:09 55.97776 37.41568 639 ft 9 kts 165°
2026-05-09 19:10 55.97721 37.41591 642 ft 7 kts 174°
2026-05-09 19:10 55.97665 37.41588 639 ft 8 kts 175°
2026-05-09 19:10 55.97617 37.41599 646 ft 6 kts 181°
2026-05-09 19:10 55.97585 37.41521 639 ft 14 kts 254°
2026-05-09 19:11 55.97556 37.41324 641 ft 16 kts 255°
2026-05-09 19:11 55.97529 37.41143 642 ft 14 kts 255°
2026-05-09 19:11 55.97505 37.40982 639 ft 13 kts 255°
2026-05-09 19:11 55.97484 37.40842 642 ft 11 kts 255°
2026-05-09 19:12 55.97463 37.40707 641 ft 14 kts 255°
2026-05-09 19:12 55.97437 37.40534 640 ft 14 kts 255°
2026-05-09 19:12 55.97414 37.40381 645 ft 12 kts 255°
2026-05-09 19:12 55.97394 37.40245 640 ft 11 kts 255°
2026-05-09 19:13 55.97376 37.40125 639 ft 9 kts 255°
2026-05-09 19:13 55.97361 37.40022 641 ft 8 kts 255°
2026-05-09 19:13 55.97346 37.39936 639 ft 7 kts 244°
2026-05-09 19:13 55.97311 37.39897 638 ft 6 kts 195°
2026-05-09 19:14 55.97276 37.39907 638 ft 5 kts 164°
2026-05-09 19:14 55.97230 37.39930 642 ft 12 kts 164°
2026-05-09 19:14 55.97179 37.39983 641 ft 6 kts 99°
2026-05-09 19:14 55.97183 37.40007 639 ft 0 kts 75°
2026-05-09 19:15 55.97183 37.40011 638 ft 0 kts 75°
2026-05-09 19:15 55.97184 37.40014 638 ft 0 kts 75°
2026-05-09 19:15 55.97184 37.40017 638 ft 0 kts 75°
2026-05-09 19:15 55.97185 37.40022 638 ft 1 kts 75°
2026-05-09 19:16 55.97186 37.40028 638 ft 0 kts 75°
2026-05-09 19:17 55.97186 37.40029 646 ft 2 kts 75°
2026-05-09 19:17 55.97249 37.40460 642 ft 73 kts 75°
2026-05-09 19:17 55.97434 37.41693 643 ft 130 kts 75°
2026-05-09 19:18 55.97703 37.43495 824 ft 158 kts 75°
2026-05-09 19:18 55.97970 37.45416 1505 ft 164 kts 77°
2026-05-09 19:18 55.98238 37.47425 2109 ft 169 kts 79°
2026-05-09 19:18 55.98536 37.49598 2404 ft 191 kts 78°
2026-05-09 19:19 55.98872 37.52016 2804 ft 211 kts 78°
2026-05-09 19:19 55.99234 37.54598 3574 ft 217 kts 78°
2026-05-09 19:19 55.99840 37.57207 4142 ft 242 kts 57°
2026-05-09 19:19 56.01029 37.59437 4941 ft 252 kts 51°
2026-05-09 19:20 56.02213 37.61790 5782 ft 257 kts 53°
2026-05-09 19:20 56.03380 37.64267 6584 ft 264 kts 53°
2026-05-09 19:20 56.04567 37.66821 7346 ft 270 kts 52°
2026-05-09 19:20 56.05785 37.69427 8143 ft 276 kts 51°
2026-05-09 19:21 56.07022 37.72046 8923 ft 281 kts 51°
2026-05-09 19:21 56.08305 37.74743 9709 ft 287 kts 51°
2026-05-09 19:21 56.09636 37.77526 10440 ft 294 kts 50°
2026-05-09 19:21 56.10959 37.80286 11167 ft 298 kts 49°
2026-05-09 19:22 56.12330 37.83096 11931 ft 301 kts 45°
2026-05-09 19:22 56.13967 37.85451 12681 ft 304 kts 30°
2026-05-09 19:22 56.15893 37.87005 13364 ft 304 kts 14°
2026-05-09 19:22 56.17977 37.87628 14026 ft 309 kts
2026-05-09 19:23 56.20204 37.87944 14177 ft 332 kts
2026-05-09 19:23 56.22583 37.88290 14338 ft 352 kts
2026-05-09 19:23 56.25057 37.88658 14797 ft 360 kts
2026-05-09 19:23 56.27572 37.89039 15397 ft 364 kts
2026-05-09 19:24 56.30105 37.89417 16044 ft 367 kts
2026-05-09 19:24 56.32657 37.89795 16686 ft 369 kts
2026-05-09 19:24 56.35232 37.90177 17317 ft 372 kts
2026-05-09 19:24 56.37831 37.90559 17933 ft 375 kts
2026-05-09 19:25 56.40445 37.90943 18534 ft 378 kts
2026-05-09 19:25 56.43077 37.91325 19058 ft 382 kts
2026-05-09 19:25 56.45740 37.91713 19561 ft 385 kts
2026-05-09 19:25 56.48423 37.92107 20072 ft 388 kts
2026-05-09 19:26 56.51119 37.92505 20563 ft 391 kts
2026-05-09 19:26 56.53846 37.92908 21034 ft 395 kts
2026-05-09 19:26 56.56601 37.93317 21508 ft 398 kts
2026-05-09 19:26 56.59370 37.93730 21981 ft 401 kts
2026-05-09 19:27 56.62169 37.94149 22479 ft 404 kts
2026-05-09 19:27 56.64980 37.94575 22957 ft 407 kts
2026-05-09 19:27 56.67812 37.95003 23411 ft 409 kts
2026-05-09 19:27 56.70663 37.95428 23856 ft 412 kts
2026-05-09 19:28 56.73502 37.95853 24235 ft 415 kts
2026-05-09 19:28 56.76393 37.96287 24611 ft 418 kts
2026-05-09 19:28 56.79295 37.96723 24986 ft 420 kts
2026-05-09 19:28 56.82216 37.97159 25349 ft 422 kts
2026-05-09 19:29 56.85158 37.97600 25714 ft 425 kts
2026-05-09 19:29 56.88112 37.98043 26079 ft 427 kts
2026-05-09 19:29 56.91081 37.98491 26434 ft 429 kts
2026-05-09 19:29 56.93942 37.98923 26791 ft 431 kts
2026-05-09 19:30 56.96939 37.99378 27156 ft 433 kts
2026-05-09 19:30 56.99947 37.99838 27514 ft 435 kts
2026-05-09 19:30 57.02977 38.00300 27843 ft 438 kts
2026-05-09 19:30 57.06029 38.00765 28178 ft 440 kts
2026-05-09 19:31 57.09086 38.01230 28518 ft 442 kts
2026-05-09 19:31 57.12159 38.01697 28840 ft 444 kts
2026-05-09 19:31 57.15211 38.02159 29143 ft 446 kts
2026-05-09 19:31 57.18308 38.02633 29442 ft 449 kts
2026-05-09 19:32 57.21432 38.03116 29737 ft 451 kts
2026-05-09 19:32 57.24565 38.03601 30035 ft 453 kts
2026-05-09 19:32 57.27709 38.04086 30372 ft 454 kts
2026-05-09 19:32 57.30860 38.04573 30637 ft 455 kts
2026-05-09 19:33 57.34018 38.05061 30907 ft 456 kts
2026-05-09 19:33 57.37177 38.05549 31252 ft 454 kts
2026-05-09 19:33 57.40327 38.06037 31602 ft 454 kts
2026-05-09 19:33 57.43472 38.06526 31938 ft 453 kts
2026-05-09 19:34 57.46570 38.07008 32265 ft 452 kts
2026-05-09 19:34 57.49702 38.07500 32600 ft 452 kts
2026-05-09 19:34 57.52835 38.07998 32944 ft 451 kts
2026-05-09 19:34 57.55956 38.08494 33276 ft 450 kts
2026-05-09 19:35 57.59092 38.08989 33644 ft 449 kts
2026-05-09 19:35 57.62200 38.09480 33994 ft 448 kts
2026-05-09 19:35 57.65303 38.09969 34333 ft 447 kts
2026-05-09 19:35 57.68410 38.10454 34609 ft 447 kts
2026-05-09 19:36 57.71507 38.10935 34884 ft 447 kts
2026-05-09 19:36 57.74611 38.11419 35146 ft 446 kts
2026-05-09 19:36 57.77707 38.11905 35405 ft 446 kts
2026-05-09 19:36 57.80803 38.12393 35648 ft 446 kts
2026-05-09 19:37 57.83891 38.12891 35882 ft 446 kts
2026-05-09 19:37 57.86983 38.13392 36117 ft 446 kts
2026-05-09 19:37 57.90075 38.13889 36289 ft 446 kts
2026-05-09 19:37 57.93170 38.14382 36335 ft 445 kts
2026-05-09 19:38 57.99335 38.15357 36334 ft 445 kts
2026-05-09 19:38 58.05502 38.16338 36341 ft 445 kts
2026-05-09 19:39 58.11668 38.17340 36338 ft 445 kts
2026-05-09 19:39 58.17839 38.18345 36343 ft 445 kts
2026-05-09 19:40 58.23969 38.19342 36364 ft 444 kts
2026-05-09 19:40 58.30165 38.20347 36368 ft 444 kts
2026-05-09 19:41 58.36268 38.21348 36363 ft 443 kts
2026-05-09 19:41 58.42407 38.22349 36357 ft 442 kts
2026-05-09 19:42 58.48541 38.23363 36362 ft 442 kts
2026-05-09 19:42 58.54680 38.24381 36361 ft 442 kts
2026-05-09 19:43 58.60808 38.25391 36384 ft 442 kts
2026-05-09 19:43 58.66928 38.26410 36380 ft 440 kts 359°
2026-05-09 19:44 58.72928 38.25436 36383 ft 429 kts 343°
2026-05-09 19:44 58.78763 38.22939 36379 ft 429 kts 343°
2026-05-09 19:45 58.84594 38.20447 36377 ft 429 kts 343°
2026-05-09 19:45 58.90422 38.17964 36380 ft 429 kts 343°
2026-05-09 19:46 58.96222 38.15507 36376 ft 429 kts 344°
2026-05-09 19:46 59.02056 38.13024 36362 ft 429 kts 343°
2026-05-09 19:47 59.07883 38.10514 36388 ft 429 kts 343°
2026-05-09 19:47 59.13713 38.07997 36384 ft 429 kts 343°
2026-05-09 19:48 59.19534 38.05486 36384 ft 428 kts 343°
2026-05-09 19:48 59.25321 38.02995 36390 ft 429 kts 346°
2026-05-09 19:49 59.31333 38.02620 36388 ft 437 kts
2026-05-09 19:49 59.37391 38.03806 36412 ft 437 kts
2026-05-09 19:50 59.43445 38.04970 36395 ft 437 kts
2026-05-09 19:50 59.49482 38.06125 36389 ft 436 kts
2026-05-09 19:51 59.55523 38.07289 36391 ft 436 kts
2026-05-09 19:51 59.60540 38.08265 36384 ft 436 kts
2026-05-09 19:52 59.67552 38.09641 36384 ft 436 kts
2026-05-09 19:52 59.73509 38.10816 36406 ft 435 kts
2026-05-09 19:53 59.78447 38.11792 36398 ft 435 kts
2026-05-09 19:53 59.84474 38.12979 36392 ft 435 kts
2026-05-09 19:54 59.90497 38.14170 36382 ft 435 kts
2026-05-09 19:54 59.96521 38.15371 36380 ft 435 kts
2026-05-09 19:55 60.02549 38.16577 36378 ft 435 kts
2026-05-09 19:56 60.11541 38.18379 36407 ft 434 kts
2026-05-09 19:56 60.17579 38.19598 36405 ft 433 kts
2026-05-09 19:57 60.23534 38.20811 36400 ft 432 kts
2026-05-09 19:57 60.29520 38.22016 36394 ft 432 kts
2026-05-09 19:58 60.35504 38.23216 36395 ft 432 kts
2026-05-09 19:58 60.41478 38.24428 36421 ft 431 kts 360°
2026-05-09 19:59 60.47437 38.25649 36419 ft 430 kts 360°
2026-05-09 19:59 60.53383 38.26872 36412 ft 429 kts 360°
2026-05-09 20:00 60.59319 38.28092 36408 ft 428 kts 360°
2026-05-09 20:00 60.65253 38.29316 36404 ft 428 kts 360°
2026-05-09 20:01 60.71171 38.30541 36403 ft 427 kts 360°
2026-05-09 20:01 60.77091 38.31773 36433 ft 427 kts 359°
2026-05-09 20:02 60.82998 38.32998 36416 ft 426 kts 360°
2026-05-09 20:02 60.88900 38.34228 36408 ft 426 kts 360°
2026-05-09 20:03 60.97710 38.36081 36400 ft 426 kts 360°
2026-05-09 20:03 61.03607 38.37330 36395 ft 426 kts 360°
2026-05-09 20:04 61.09507 38.38585 36426 ft 426 kts
2026-05-09 20:04 61.15396 38.39844 36421 ft 425 kts
2026-05-09 20:05 61.21275 38.41085 36410 ft 424 kts 358°
2026-05-09 20:05 61.27055 38.40259 36403 ft 411 kts 342°
2026-05-09 20:06 61.32643 38.37646 36395 ft 411 kts 343°
2026-05-09 20:06 61.38235 38.35063 36391 ft 412 kts 343°
2026-05-09 20:07 61.43832 38.32458 36388 ft 412 kts 343°
2026-05-09 20:07 61.49393 38.29868 36425 ft 412 kts 343°
2026-05-09 20:08 61.57781 38.25935 36412 ft 411 kts 342°
2026-05-09 20:09 61.63364 38.23292 36404 ft 411 kts 342°
2026-05-09 20:09 61.68943 38.20649 36398 ft 411 kts 343°
2026-05-09 20:10 61.74524 38.18019 36394 ft 411 kts 343°
2026-05-09 20:10 61.80101 38.15359 36387 ft 411 kts 343°
2026-05-09 20:11 61.85682 38.12685 36390 ft 411 kts 343°
2026-05-09 20:11 61.91264 38.10005 36435 ft 411 kts 343°
2026-05-09 20:12 61.96804 38.07318 36424 ft 410 kts 343°
2026-05-09 20:12 62.02364 38.04572 36415 ft 410 kts 342°
2026-05-09 20:13 62.07951 38.01774 36411 ft 409 kts 342°
2026-05-09 20:13 62.13458 37.99017 36405 ft 409 kts 342°
2026-05-09 20:14 62.19009 37.96231 36401 ft 409 kts 342°
2026-05-09 20:14 62.24556 37.93435 36393 ft 409 kts 342°
2026-05-09 20:15 62.30098 37.90633 36397 ft 409 kts 342°
2026-05-09 20:15 62.35638 37.87833 36394 ft 409 kts 342°
2026-05-09 20:16 62.41181 37.85015 36422 ft 409 kts 343°
2026-05-09 20:16 62.46718 37.82180 36402 ft 409 kts 343°
2026-05-09 20:17 62.52222 37.79359 36397 ft 409 kts 343°
2026-05-09 20:17 62.57759 37.76505 36392 ft 409 kts 343°
2026-05-09 20:18 62.63294 37.73622 36391 ft 409 kts 343°
2026-05-09 20:18 62.68790 37.70414 36390 ft 408 kts 340°
2026-05-09 20:19 62.74215 37.66780 36394 ft 408 kts 339°
2026-05-09 20:19 62.79631 37.63103 36393 ft 408 kts 339°
2026-05-09 20:20 62.85069 37.59493 36389 ft 408 kts 340°
2026-05-09 20:20 62.90518 37.55914 36387 ft 408 kts 340°
2026-05-09 20:21 62.95930 37.52345 36386 ft 408 kts 340°
2026-05-09 20:21 63.01368 37.48738 36388 ft 408 kts 340°
2026-05-09 20:22 63.06815 37.45110 36387 ft 408 kts 340°
2026-05-09 20:22 63.12259 37.41469 36390 ft 408 kts 340°
2026-05-09 20:23 63.17664 37.37836 36391 ft 408 kts 340°
2026-05-09 20:23 63.23103 37.34165 36389 ft 409 kts 340°
2026-05-09 20:24 63.28555 37.30448 36392 ft 409 kts 339°
2026-05-09 20:24 63.33968 37.26572 36420 ft 409 kts 339°
2026-05-09 20:25 63.39371 37.22633 36413 ft 409 kts 339°
2026-05-09 20:25 63.44774 37.18620 36408 ft 408 kts 338°
2026-05-09 20:26 63.50126 37.14395 36396 ft 407 kts 337°
2026-05-09 20:26 63.55462 37.10130 36386 ft 407 kts 338°
2026-05-09 20:27 63.60806 37.05870 36377 ft 407 kts 338°
2026-05-09 20:28 63.71361 36.97473 36370 ft 407 kts 338°
2026-05-09 20:28 63.76674 36.93214 36373 ft 408 kts 338°
2026-05-09 20:29 63.84701 36.86758 36406 ft 409 kts 338°
2026-05-09 20:29 63.90061 36.82424 36400 ft 409 kts 338°
2026-05-09 20:30 63.95428 36.78059 36382 ft 409 kts 338°
2026-05-09 20:30 64.00791 36.73687 36381 ft 409 kts 338°
2026-05-09 20:31 64.06142 36.69314 36378 ft 409 kts 338°
2026-05-09 20:31 64.11463 36.64946 36377 ft 409 kts 338°
2026-05-09 20:32 64.16817 36.60525 36374 ft 408 kts 337°
2026-05-09 20:32 64.22166 36.56092 36371 ft 408 kts 337°
2026-05-09 20:33 64.27511 36.51659 36369 ft 408 kts 337°
2026-05-09 20:33 64.32857 36.47205 36396 ft 408 kts 337°
2026-05-09 20:34 64.38209 36.42722 36379 ft 409 kts 337°
2026-05-09 20:34 64.43527 36.38237 36372 ft 409 kts 337°
2026-05-09 20:35 64.48881 36.33722 36368 ft 409 kts 337°
2026-05-09 20:35 64.54242 36.29207 36364 ft 409 kts 337°
2026-05-09 20:36 64.59597 36.24650 36361 ft 409 kts 337°
2026-05-09 20:36 64.64856 36.19595 36349 ft 407 kts 330°
2026-05-09 20:37 64.69904 36.13539 36353 ft 408 kts 330°
2026-05-09 20:37 64.74953 36.07476 36353 ft 407 kts 330°
2026-05-09 20:38 64.79965 36.01425 36347 ft 408 kts 330°
2026-05-09 20:38 64.85010 35.95291 36349 ft 408 kts 330°
2026-05-09 20:39 64.90039 35.89110 36373 ft 408 kts 330°
2026-05-09 20:39 64.95072 35.82904 36363 ft 408 kts 330°
2026-05-09 20:40 65.00104 35.76673 36346 ft 408 kts 330°
2026-05-09 20:40 65.05063 35.70273 36344 ft 408 kts 327°
2026-05-09 20:41 65.09857 35.63061 36341 ft 407 kts 325°
2026-05-09 20:41 65.14546 35.55634 36342 ft 407 kts 325°
2026-05-09 20:42 65.19289 35.48235 36344 ft 408 kts 325°
2026-05-09 20:42 65.24057 35.40917 36345 ft 408 kts 326°
2026-05-09 20:43 65.28848 35.33619 36337 ft 408 kts 326°
2026-05-09 20:43 65.33640 35.26297 36333 ft 408 kts 326°
2026-05-09 20:44 65.38415 35.18955 36336 ft 408 kts 326°
2026-05-09 20:44 65.43182 35.11572 36336 ft 409 kts 325°
2026-05-09 20:45 65.47160 35.05371 36336 ft 409 kts 325°
2026-05-09 20:45 65.52729 34.96654 36361 ft 409 kts 325°
2026-05-09 20:46 65.57486 34.89193 36354 ft 409 kts 325°
2026-05-09 20:46 65.62239 34.81685 36348 ft 409 kts 325°
2026-05-09 20:47 65.66209 34.75402 36337 ft 409 kts 325°
2026-05-09 20:47 65.70971 34.67845 36336 ft 409 kts 325°
2026-05-09 20:48 65.75722 34.60272 36334 ft 409 kts 325°
2026-05-09 20:48 65.80461 34.52674 36333 ft 409 kts 325°
2026-05-09 20:49 65.85204 34.45011 36329 ft 409 kts 325°
2026-05-09 20:49 65.89954 34.37318 36317 ft 409 kts 324°
2026-05-09 20:50 65.94708 34.29589 36314 ft 409 kts 324°
2026-05-09 20:50 65.99412 34.21901 36310 ft 409 kts 324°
2026-05-09 20:51 66.04149 34.14131 36312 ft 410 kts 324°
2026-05-09 20:51 66.08861 34.06189 36314 ft 409 kts 323°
2026-05-09 20:52 66.13522 33.98177 36307 ft 409 kts 323°
2026-05-09 20:52 66.18211 33.90105 36334 ft 410 kts 323°
2026-05-09 20:53 66.22861 33.82076 36319 ft 410 kts 323°
2026-05-09 20:53 66.27542 33.73961 36312 ft 410 kts 323°
2026-05-09 20:54 66.32211 33.65834 36312 ft 410 kts 323°
2026-05-09 20:54 66.36960 33.58027 36309 ft 411 kts 331°
2026-05-09 20:55 66.42385 33.53336 36297 ft 415 kts 341°
2026-05-09 20:55 66.47957 33.49486 36295 ft 415 kts 341°
2026-05-09 20:56 66.56308 33.43638 36291 ft 416 kts 341°
2026-05-09 20:57 66.61848 33.39717 36291 ft 416 kts 341°
2026-05-09 20:57 66.67422 33.35757 36284 ft 416 kts 341°
2026-05-09 20:58 66.73002 33.31786 36308 ft 416 kts 341°
2026-05-09 20:58 66.78574 33.27805 36303 ft 416 kts 341°
2026-05-09 20:59 66.84154 33.23790 36295 ft 416 kts 341°
2026-05-09 20:59 66.89727 33.19752 36298 ft 416 kts 341°
2026-05-09 21:00 66.98090 33.13688 36287 ft 417 kts 340°
2026-05-09 21:00 67.03673 33.09618 36282 ft 417 kts 340°
2026-05-09 21:01 67.09222 33.05528 36285 ft 417 kts 340°
2026-05-09 21:02 67.17599 32.99324 36309 ft 418 kts 341°
2026-05-09 21:02 67.23191 32.95180 36298 ft 418 kts 340°
2026-05-09 21:03 67.28780 32.90996 36292 ft 418 kts 340°
2026-05-09 21:03 67.34377 32.86781 35602 ft 423 kts 340°
2026-05-09 21:03 67.37230 32.84619 34630 ft 430 kts 340°
2026-05-09 21:04 67.40092 32.82448 33994 ft 426 kts 340°
2026-05-09 21:04 67.42928 32.80309 33005 ft 422 kts 340°
2026-05-09 21:04 67.45770 32.78769 31973 ft 422 kts 348°
2026-05-09 21:04 67.48688 32.78314 31493 ft 418 kts 354°
2026-05-09 21:05 67.51586 32.78202 30893 ft 414 kts 354°
2026-05-09 21:05 67.54455 32.78089 30292 ft 409 kts 354°
2026-05-09 21:05 67.57286 32.77975 29658 ft 404 kts 354°
2026-05-09 21:05 67.60072 32.77862 29140 ft 398 kts 353°
2026-05-09 21:06 67.62830 32.77752 28537 ft 393 kts 354°
2026-05-09 21:06 67.65512 32.77649 28002 ft 388 kts 354°
2026-05-09 21:06 67.68226 32.77547 27467 ft 382 kts 354°
2026-05-09 21:06 67.70843 32.77442 26946 ft 378 kts 354°
2026-05-09 21:07 67.73459 32.77336 26432 ft 373 kts 354°
2026-05-09 21:07 67.76036 32.77232 25927 ft 368 kts 354°
2026-05-09 21:07 67.78582 32.77125 25430 ft 364 kts 354°
2026-05-09 21:07 67.81099 32.77018 24952 ft 360 kts 354°
2026-05-09 21:08 67.83588 32.76920 24496 ft 356 kts 354°
2026-05-09 21:08 67.86053 32.76827 24054 ft 352 kts 355°
2026-05-09 21:08 67.88485 32.76737 23574 ft 348 kts 355°
2026-05-09 21:08 67.90901 32.76645 23147 ft 346 kts 355°
2026-05-09 21:09 67.93308 32.76551 22730 ft 345 kts 355°
2026-05-09 21:09 67.95703 32.76461 22332 ft 343 kts 355°
2026-05-09 21:09 67.98082 32.76371 21935 ft 342 kts 355°
2026-05-09 21:09 68.00457 32.76295 21525 ft 340 kts 355°
2026-05-09 21:10 68.02823 32.76254 21115 ft 339 kts 355°
2026-05-09 21:10 68.05173 32.76231 20711 ft 337 kts 355°
2026-05-09 21:10 68.07512 32.76213 20285 ft 336 kts 355°
2026-05-09 21:10 68.09815 32.76188 19885 ft 334 kts 355°
2026-05-09 21:11 68.12136 32.76154 19466 ft 333 kts 355°
2026-05-09 21:12 68.21324 32.75999 17729 ft 327 kts 356°
2026-05-09 21:12 68.23589 32.75962 17318 ft 325 kts 356°
2026-05-09 21:12 68.25874 32.75923 16889 ft 324 kts 356°
2026-05-09 21:12 68.28089 32.75888 16487 ft 322 kts 356°
2026-05-09 21:13 68.30327 32.75848 16074 ft 321 kts 356°
2026-05-09 21:13 68.32555 32.75816 15672 ft 320 kts 356°
2026-05-09 21:13 68.34772 32.75788 15261 ft 319 kts 356°
2026-05-09 21:13 68.36987 32.75757 14867 ft 318 kts 356°
2026-05-09 21:14 68.39198 32.75725 14449 ft 317 kts 356°
2026-05-09 21:14 68.41402 32.75697 14034 ft 317 kts 356°
2026-05-09 21:14 68.43609 32.75717 13591 ft 316 kts 357°
2026-05-09 21:14 68.45799 32.75890 13167 ft 314 kts 358°
2026-05-09 21:15 68.47985 32.76143 12757 ft 312 kts 359°
2026-05-09 21:15 68.50148 32.76247 12320 ft 309 kts 353°
2026-05-09 21:15 68.52254 32.75356 11904 ft 304 kts 341°
2026-05-09 21:15 68.54227 32.73404 11490 ft 300 kts 331°
2026-05-09 21:16 68.56109 32.70951 11072 ft 299 kts 331°
2026-05-09 21:16 68.57981 32.68514 10682 ft 297 kts 331°
2026-05-09 21:16 68.59811 32.66131 10549 ft 286 kts 331°
2026-05-09 21:16 68.61582 32.63824 10320 ft 279 kts 331°
2026-05-09 21:17 68.63325 32.61548 10109 ft 275 kts 330°
2026-05-09 21:17 68.65048 32.59290 9989 ft 275 kts 330°
2026-05-09 21:17 68.66775 32.57022 9831 ft 275 kts 330°
2026-05-09 21:17 68.68468 32.54792 9506 ft 273 kts 330°
2026-05-09 21:18 68.70183 32.52536 9136 ft 272 kts 330°
2026-05-09 21:18 68.71890 32.50283 8764 ft 271 kts 330°
2026-05-09 21:18 68.73583 32.48036 8392 ft 270 kts 329°
2026-05-09 21:18 68.75271 32.45802 8021 ft 268 kts 329°
2026-05-09 21:19 68.80017 32.38278 6900 ft 259 kts 320°
2026-05-09 21:19 68.81500 32.35478 6509 ft 258 kts 320°
2026-05-09 21:20 68.82974 32.32712 6119 ft 253 kts 320°
2026-05-09 21:20 68.84526 32.30461 5554 ft 255 kts 342°
2026-05-09 21:20 68.86282 32.30664 5148 ft 256 kts 18°
2026-05-09 21:20 68.87703 32.33517 4731 ft 253 kts 54°
2026-05-09 21:21 68.88660 32.37533 4324 ft 246 kts 57°
2026-05-09 21:21 68.89602 32.41442 3948 ft 240 kts 57°
2026-05-09 21:21 68.90508 32.45261 3585 ft 233 kts 65°
2026-05-09 21:21 68.90767 32.49440 3203 ft 219 kts 107°
2026-05-09 21:22 68.90066 32.52906 2910 ft 201 kts 144°
2026-05-09 21:22 68.88959 32.55057 2704 ft 189 kts 150°
2026-05-09 21:22 68.87888 32.57053 2460 ft 183 kts 150°
2026-05-09 21:22 68.86848 32.58995 2203 ft 178 kts 150°
2026-05-09 21:23 68.85845 32.60870 1962 ft 168 kts 150°
2026-05-09 21:23 68.84914 32.62609 1725 ft 155 kts 150°
2026-05-09 21:23 68.84054 32.64213 1511 ft 144 kts 150°
2026-05-09 21:23 68.83239 32.65729 1308 ft 139 kts 149°
2026-05-09 21:24 68.82447 32.67202 1098 ft 136 kts 149°
2026-05-09 21:24 68.81660 32.68663 903 ft 138 kts 147°
2026-05-09 21:24 68.80864 32.70140 691 ft 138 kts 147°
2026-05-09 21:24 68.80071 32.71612 477 ft 136 kts 146°
2026-05-09 21:25 68.79293 32.73081 313 ft 136 kts 146°
2026-05-09 21:25 68.78534 32.74472 253 ft 119 kts 147°
2026-05-09 21:25 68.77997 32.75457 253 ft 69 kts 146°
2026-05-09 21:25 68.77740 32.75937 252 ft 20 kts 146°
2026-05-09 21:26 68.77637 32.76127 252 ft 18 kts 146°
2026-05-09 21:26 68.77527 32.76326 254 ft 19 kts 146°
2026-05-09 21:26 68.77440 32.76539 253 ft 16 kts 108°
2026-05-09 21:26 68.77444 32.76863 254 ft 18 kts 86°
2026-05-09 21:27 68.77409 32.77090 254 ft 14 kts 148°
2026-05-09 21:27 68.77317 32.77094 254 ft 16 kts 229°
2026-05-09 21:27 68.77293 32.76790 252 ft 18 kts 295°
2026-05-09 21:27 68.77390 32.76589 252 ft 17 kts 327°
2026-05-09 21:28 68.77487 32.76410 253 ft 19 kts 326°
2026-05-09 21:28 68.77633 32.76140 252 ft 31 kts 325°
2026-05-09 21:28 68.77816 32.75793 253 ft 33 kts 326°
2026-05-09 21:28 68.78006 32.75443 253 ft 34 kts 326°
2026-05-09 21:29 68.78167 32.75140 253 ft 16 kts 325°
2026-05-09 21:29 68.78242 32.74999 255 ft 10 kts 326°
2026-05-09 21:30 68.78360 32.75234 254 ft 8 kts 57°
2026-05-09 21:30 68.78387 32.75353 254 ft 7 kts 57°
2026-05-09 21:30 68.78412 32.75457 254 ft 6 kts 56°
2026-05-09 21:30 68.78419 32.75485 254 ft 0 kts 56°
2026-05-09 21:31 68.78416 32.75472 254 ft 2 kts 45°
2026-05-09 21:31 68.78413 32.75463 254 ft 2 kts 39°
2026-05-09 21:31 68.78399 32.75441 254 ft 2 kts 357°
2026-05-09 21:31 68.78384 32.75453 254 ft 2 kts 326°
2026-05-09 21:32 68.78371 32.75480 254 ft 2 kts 323°
2026-05-09 21:32 68.78359 32.75505 254 ft 0 kts 324°